Location: ????????
(55.0097°N, 38.5678°E)
Time: 13:09:54
(UTC+00:00)

YAOGAN 11 - Visible Passes

Search period start: 17 July 2024 00:00
Search period end: 27 July 2024 00:00
Orbit: 606 x 657 km, 98.4° (Epoch: 17 July)

Date Brightness Start Highest point End Pass type
(mag) Time Alt. Az. Time Alt. Az. Time Alt. Az.
19 Jul 7.6 00:13:39 10° ENE 00:15:37 13° NE 00:17:35 10° NNE visible
23 Jul 8.0 00:02:09 10° ENE 00:03:05 11° NE 00:04:00 10° NNE visible
24 Jul 7.5 00:21:16 10° E 00:23:39 14° NE 00:26:02 10° NNE visible
